Weather History for Vicksburg Municipal, MS

Change the Weather History Date:

Monday, June 9, 2014

  Actual Average (KTVR) Record (KTVR)
Temperature  
Mean Temperature 79 °F 78 °F  
Max Temperature 89 °F 89 °F 97 °F (1985)
Min Temperature 69 °F 67 °F 54 °F (1976)
Degree Days  
Heating Degree Days 0 0  
Month to date heating degree days 0  
Since 1 June heating degree days 0  
Since 1 July heating degree days 2351  
Cooling Degree Days 14 13  
Month to date cooling degree days 112  
Year to date cooling degree days 482  
Since 1 June cooling degree days 112  
Growing Degree Days 29 (Base 50)    
Moisture  
Dew Point 71 °F    
Average Humidity 80    
Maximum Humidity 94    
Minimum Humidity 55    
Precipitation  
Precipitation 0.00 in 0.13 in 1.42 in (1959)
Month to date precipitation 1.13  
Year to date precipitation 26.43  
Sea Level Pressure  
Sea Level Pressure 29.85 in    
Wind  
Wind Speed 8 mph (SSW)    
Max Wind Speed 17 mph    
Max Gust Speed 28 mph    
Visibility 9 miles    
Events      
T = Trace of Precipitation, MM = Missing Value Source: NWS Daily Summary

Daily Weather History Graph

Daily Weather History Graph

Search for Another Location

Airport:

Trip Planner

Search our weather history database for the weather conditions in past years. The results will help you decide how hot, cold, wet, or windy it might be!

Date:

Astronomy

Jun. 09, 2014 Rise Set
Actual Time 5:56 AM CDT 8:09 PM CDT
Civil Twilight 5:28 AM CDT 8:37 PM CDT
Nautical Twilight 4:53 AM CDT 9:12 PM CDT
Astronomical Twilight 4:16 AM CDT 9:49 PM CDT
Moon 4:41 PM CDT (6/9) 3:11 AM CDT (6/9)
Length of Visible Light 15h 09m
Length of Day
14h 13m
Waxing Gibbous, 85% of the Moon is Illuminated
Jun 9
Waxing Gibbous
Jun 12
Full
Jun 19
Last Quarter
Jun 27
New
Jul 5
First Quarter

Hourly Weather History & Observations

Time (CDT) Temp. Heat Index Dew Point Humidity Pressure Visibility Wind Dir Wind Speed Gust Speed Precip Events Conditions
7:35 AM 77.0 °F - 75.2 °F 94% 29.87 in 10.0 mi South 6.9 mph 12.7 mph N/A   Scattered Clouds
7:55 AM 78.8 °F - 75.2 °F 89% 29.87 in 10.0 mi SSW 8.1 mph - N/A   Partly Cloudy
8:15 AM 78.8 °F - 73.4 °F 83% 29.88 in 10.0 mi SSW 8.1 mph - N/A   Scattered Clouds
8:35 AM 80.6 °F 85.4 °F 73.4 °F 79% 29.89 in 10.0 mi WSW 8.1 mph - N/A   Mostly Cloudy
8:55 AM 80.6 °F 85.4 °F 73.4 °F 79% 29.90 in 10.0 mi SSW 11.5 mph - N/A   Mostly Cloudy
9:15 AM 82.4 °F 88.2 °F 73.4 °F 74% 29.89 in 10.0 mi SW 9.2 mph - N/A   Mostly Cloudy
9:35 AM 82.4 °F 88.2 °F 73.4 °F 74% 29.89 in 10.0 mi SSW 11.5 mph - N/A   Scattered Clouds
9:55 AM 84.2 °F 90.9 °F 73.4 °F 70% 29.89 in 10.0 mi SW 8.1 mph - N/A   Scattered Clouds
10:15 AM 84.2 °F 90.9 °F 73.4 °F 70% 29.89 in 10.0 mi SW 10.4 mph - N/A   Mostly Cloudy
10:35 AM 84.2 °F 89.6 °F 71.6 °F 66% 29.89 in 10.0 mi SW 6.9 mph - N/A   Scattered Clouds
10:55 AM 84.2 °F 90.9 °F 73.4 °F 70% 29.90 in 10.0 mi North - - N/A   Clear
11:15 AM 86.0 °F 93.4 °F 73.4 °F 66% 29.90 in 10.0 mi SSW 9.2 mph 16.1 mph N/A   Scattered Clouds
11:55 AM 86.0 °F 91.8 °F 71.6 °F 62% 29.88 in 10.0 mi SSW 11.5 mph 19.6 mph N/A   Partly Cloudy
12:15 PM 87.8 °F 93.8 °F 71.6 °F 58% 29.87 in 10.0 mi SSW 9.2 mph 16.1 mph N/A   Clear
12:35 PM 87.8 °F 93.8 °F 71.6 °F 58% 29.86 in 10.0 mi South 8.1 mph 16.1 mph N/A   Clear
12:55 PM 87.8 °F 95.6 °F 73.4 °F 62% 29.85 in 10.0 mi South 13.8 mph - N/A   Partly Cloudy
1:15 PM 87.8 °F 95.6 °F 73.4 °F 62% 29.84 in 10.0 mi SSE 6.9 mph 17.3 mph N/A   Partly Cloudy
1:35 PM 87.8 °F 93.8 °F 71.6 °F 58% 29.83 in 10.0 mi South 12.7 mph 19.6 mph N/A   Scattered Clouds
2:55 PM 89.6 °F 98.2 °F 73.4 °F 59% 29.80 in 10.0 mi South 10.4 mph 17.3 mph N/A   Partly Cloudy
3:15 PM 89.6 °F 96.2 °F 71.6 °F 55% 29.79 in 10.0 mi SW 15.0 mph 21.9 mph N/A   Partly Cloudy
3:35 PM 89.6 °F 96.2 °F 71.6 °F 55% 29.79 in 10.0 mi SW 13.8 mph - N/A   Clear
3:55 PM 87.8 °F 93.8 °F 71.6 °F 58% 29.80 in 10.0 mi SSW 11.5 mph 17.3 mph N/A   Clear
4:15 PM 86.0 °F 93.4 °F 73.4 °F 66% 29.81 in 10.0 mi SSW 10.4 mph - N/A   Partly Cloudy
4:35 PM 71.6 °F - 68.0 °F 88% 29.85 in 0.8 mi West 17.3 mph 27.6 mph N/A   Overcast
4:55 PM 69.8 °F - 68.0 °F 94% 29.87 in 1.0 mi WNW 13.8 mph 26.5 mph N/A   Overcast
5:15 PM 69.8 °F - 68.0 °F 94% 29.88 in 2.0 mi Calm Calm 11.5 mph N/A   Mostly Cloudy
5:35 PM 69.8 °F - 68.0 °F 94% 29.88 in 10.0 mi Calm Calm - N/A   Mostly Cloudy
5:55 PM 71.6 °F - 68.0 °F 88% 29.87 in 10.0 mi WSW 3.5 mph - N/A   Scattered Clouds
6:15 PM 71.6 °F - 68.0 °F 88% 29.85 in 7.0 mi SSW 4.6 mph - N/A   Partly Cloudy
6:35 PM 71.6 °F - 68.0 °F 88% 29.84 in 10.0 mi South 6.9 mph - N/A   Partly Cloudy
6:55 PM 71.6 °F - 68.0 °F 88% 29.85 in 10.0 mi South 9.2 mph - N/A   Partly Cloudy
7:15 PM 71.6 °F - 68.0 °F 88% 29.82 in 7.0 mi Variable 5.8 mph 19.6 mph N/A   Mostly Cloudy
7:35 PM 71.6 °F - 68.0 °F 88% 29.81 in 10.0 mi SSE 9.2 mph - N/A   Partly Cloudy
7:55 PM 71.6 °F - 68.0 °F 88% 29.81 in 10.0 mi Variable 5.8 mph 12.7 mph N/A   Clear
8:15 PM 69.8 °F - 68.0 °F 94% 29.77 in 10.0 mi ESE 5.8 mph - N/A   Clear
8:35 PM 69.8 °F - 68.0 °F 94% 29.79 in 10.0 mi SSE 6.9 mph - N/A   Clear
8:55 PM 69.8 °F - 68.0 °F 94% 29.79 in 10.0 mi SSE 6.9 mph - N/A   Clear
9:15 PM 69.8 °F - 68.0 °F 94% 29.81 in 10.0 mi South 5.8 mph - N/A   Clear
9:35 PM 69.8 °F - 68.0 °F 94% 29.82 in 10.0 mi South 4.6 mph - N/A   Clear
10:15 PM 69.8 °F - 68.0 °F 94% 29.84 in 10.0 mi Calm Calm - N/A   Clear
10:35 PM 69.8 °F - 68.0 °F 94% 29.84 in 10.0 mi SSE 3.5 mph - N/A   Clear
10:55 PM 69.8 °F - 68.0 °F 94% 29.85 in 10.0 mi Calm Calm - N/A   Partly Cloudy
11:15 PM 69.8 °F - 68.0 °F 94% 29.86 in 10.0 mi Calm Calm - N/A   Partly Cloudy
11:35 PM 69.8 °F - 68.0 °F 94% 29.86 in 10.0 mi Calm Calm - N/A   Clear
11:55 PM 69.8 °F - 68.0 °F 94% 29.87 in 10.0 mi Calm Calm - N/A   Scattered Clouds